[[{"header":{"parameterUnit":"m.s-1","parameterCategory":1,"la1":30.2991,"la2":30.254,"lo1":-89.0895,"lo2":-89.0444,"dy":0.0017,"dx":0.0017,"nx":28,"ny":28,"refTime":"2025-04-09T21:00:00:Z","depth":0,"parameterNumber":2,"parameterNumberName":"U-component_of_WINDS"},"data":[0,0,0,0,0,0,0,0,0,0,0,0,0,0,0,0,0,0,0,0,0,0,0,0,0,0,0,0,0,0,0,0,0,0,0,0,0,0,0,0,0,0,0,0,0,0,0,0,0,0,0,0,0,0,0,0,0,0,2.9059,2.9059,0,2.9112,2.9112,2.9113,2.904,2.9037,2.9035,2.9032,2.9083,2.9087,2.9091,0,0,0,0,0,0,0,0,0,0,0,0,0,2.889,2.8893,2.9058,2.9059,2.906,2.9112,2.9112,2.9113,2.904,2.9037,2.9034,2.9031,2.9082,2.9087,2.9091,0,0,0,0,0,0,0,0,0,0,0,0,0,2.8955,2.8894,2.9058,2.903,2.9028,2.9111,2.9112,2.9113,2.9041,2.9037,2.9033,2.9029,2.9081,2.9086,2.9092,2.9205,0,0,2.9109,2.9112,0,0,0,0,0,0,0,0,2.8951,2.8961,2.9033,2.9032,2.903,2.9065,2.9071,2.9144,2.9042,2.9036,2.9032,2.9028,2.908,2.9086,2.9104,2.9208,2.921,2.911,2.9113,2.9116,2.9117,0,0,0,0,0,0,0,2.8947,2.8958,2.9079,2.9034,2.9032,2.9013,2.9018,2.9085,2.9079,2.9036,2.9031,2.9038,2.9079,2.9099,2.9105,2.921,2.911,2.9115,2.9118,2.912,2.9406,2.941,0,0,0,0,0,0,2.8946,2.8955,2.9078,2.9081,2.898,2.9019,2.9025,2.9058,2.9078,2.9078,2.9042,2.9035,2.9091,2.9098,2.9106,2.9238,2.9116,2.9121,2.9124,2.9402,2.9407,2.9411,0,0,0,0,0,0,2.8943,2.8958,2.9075,2.9017,2.903,2.9026,2.9064,2.9061,2.9081,2.9083,2.9081,2.9064,2.9088,2.9098,2.9181,2.9239,2.9124,2.9129,2.9397,2.9403,2.9409,2.9503,0,0,0,0,0,0,2.8938,2.8957,2.9001,2.9018,2.9034,2.915,2.9068,2.9065,2.9091,2.9083,2.9103,2.9102,2.9086,2.9173,2.9186,2.9244,2.9133,2.9392,2.94,2.9407,2.9495,2.9512,2.9526,0,0,0,0,0,2.8933,2.9025,2.9004,2.9019,2.9089,2.9154,2.9162,2.9143,2.9097,2.914,2.914,2.9102,2.9231,2.9182,2.9196,2.9257,2.9388,2.9398,2.9407,2.9488,2.9508,2.9526,0,0,0,0,0,0,2.9014,2.9027,2.9003,2.9105,2.9129,2.9141,2.9195,2.9166,2.9203,2.9193,2.9166,2.9171,2.9259,2.9266,2.9212,2.9366,2.9301,2.9314,2.9358,2.9377,2.9393,2.9388,2.9138,0,0,0,0,0,2.9044,2.9097,2.9105,2.9194,2.9207,2.92,2.9227,2.921,2.9233,2.9243,2.925,2.9273,2.9318,2.9349,2.9391,2.9496,2.9498,2.9545,2.9561,2.9574,2.9584,2.9638,2.9658,2.9442,2.9442,2.9442,0,0,2.9106,2.912,2.9155,2.9211,2.9227,2.9281,2.9209,2.9269,2.9308,2.9252,2.9329,2.9335,2.9359,2.9453,2.9494,2.9462,2.9645,2.9586,2.9596,2.96,2.9649,2.967,2.9688,2.9449,2.9448,2.9447,0,0,2.9246,2.9264,2.9338,2.9356,2.9382,2.9376,2.9394,2.9412,2.9413,2.9491,2.9449,2.9495,2.9575,2.9592,2.9612,2.9758,2.9723,2.9773,2.9854,2.9907,2.9924,2.9938,2.9988,3.0006,2.9784,2.9784,2.9784,0,2.932,2.94,2.9379,2.9442,2.9467,2.942,2.9493,2.9512,2.955,2.9567,2.9531,2.9629,2.9642,2.9737,2.9773,2.9792,2.9809,2.9769,2.9923,2.9938,2.9951,2.9998,3.0017,2.979,2.9789,2.9788,2.9788,0,2.9488,2.9544,2.9601,2.9639,2.967,2.9739,2.9726,2.976,2.9741,2.9738,2.9816,2.9831,2.9873,2.9895,2.9877,2.9988,2.9967,2.9928,2.9861,2.9978,3.0021,3.0039,2.9798,2.9796,2.9794,2.9793,0,0,2.9679,2.9705,2.9726,2.9742,2.9768,2.981,2.9875,2.9918,2.9946,2.9974,3.0026,3.0095,3.0058,3.008,3.0063,3.011,3.0221,3.0064,3.0064,3.009,3.0341,3.0368,3.039,3.0199,3.0202,3.0205,3.0338,0,2.9817,2.993,2.9913,3.0022,3.0072,3.0027,3.0084,3.0105,3.0104,3.0145,3.0144,3.0192,3.0141,3.0154,3.0198,3.0198,3.027,3.0189,3.0244,3.0247,3.0237,3.0413,3.0442,3.0567,3.0355,3.0358,3.036,0,2.9992,3.0027,3.0141,3.0156,3.0177,3.0228,3.0264,3.0306,3.0327,3.0323,3.0348,3.0322,3.0385,3.032,3.0405,3.035,3.0372,3.0375,3.0379,3.0382,3.0308,3.0417,3.0607,3.0625,3.0387,3.0385,3.0383,0,3.0117,3.0192,3.0269,3.0285,3.0306,3.0342,3.0352,3.0371,3.0397,3.0429,3.0445,3.0484,3.0505,3.0535,3.0519,3.0474,3.0606,3.054,3.0602,3.0602,3.063,3.0628,3.0823,3.0649,3.0649,3.0649,3.0648,0,3.0271,3.0341,3.0325,3.0373,3.045,3.0429,3.0505,3.051,3.0526,3.0572,3.0537,3.058,3.0559,3.06,3.0589,3.0659,3.0669,3.0666,3.0662,3.0668,3.0668,3.068,3.067,3.0653,3.0652,3.0651,3.0651,0,3.0422,3.0415,3.0495,3.0509,3.0514,3.057,3.058,3.0623,3.062,3.0678,3.0691,3.0685,3.0732,3.072,3.0772,3.0764,3.0852,3.0838,3.0844,3.084,3.0902,3.0895,3.111,3.1136,3.0947,3.0949,3.0951,0,3.0519,3.0573,3.0592,3.062,3.0633,3.068,3.0706,3.0687,3.0716,3.0744,3.0784,3.0828,3.0861,3.0938,3.0938,3.0976,3.0961,3.1034,3.0966,3.097,3.0959,3.0955,3.0959,3.1046,3.1048,3.105,3.1052,0,3.0692,3.0685,3.0725,3.0764,3.0796,3.0826,3.0852,3.0877,3.086,3.0893,3.0941,3.0968,3.102,3.1063,3.1098,3.1106,3.1076,3.1073,3.1089,3.1094,3.1095,3.1093,3.0878,3.1068,3.1066,3.1065,3.1064,3.1063,3.0817,3.0861,3.0881,3.0926,3.0944,3.0969,3.1009,3.1011,3.1051,3.1092,3.1078,3.1132,3.1151,3.1195,3.1208,3.1249,3.1221,3.1245,3.125,3.1256,3.1262,3.1091,3.1256,3.1255,3.1255,3.1254,3.1254,0,3.0985,3.0996,3.1038,3.1075,3.111,3.1079,3.1106,3.1137,3.1185,3.1205,3.124,3.1293,3.1335,3.1338,3.1376,3.1408,3.1395,3.1419,3.1415,3.1417,3.1286,3.1267,3.1429,3.1429,3.1429,3.1428,3.1428,3.1428,3.1077,3.1149,3.1145,3.1225,3.1234,3.1288,3.1305,3.1327,3.1343,3.1405,3.1439,3.1441,3.1454,3.1493,3.1529,3.1528,3.1543,3.1572,3.1566,3.1444,3.1426,3.1409,3.1391,3.1576,3.1576,3.1692,3.1693,3.1694]},{"header":{"parameterUnit":"m.s-1","parameterCategory":1,"la1":30.2991,"la2":30.254,"lo1":-89.0895,"lo2":-89.0444,"dy":0.0017,"dx":0.0017,"nx":28,"ny":28,"refTime":"2025-04-09T21:00:00:Z","depth":0,"parameterNumber":3,"parameterNumberName":"V-component_of_WINDS"},"data":[0,0,0,0,0,0,0,0,0,0,0,0,0,0,0,0,0,0,0,0,0,0,0,0,0,0,0,0,0,0,0,0,0,0,0,0,0,0,0,0,0,0,0,0,0,0,0,0,0,0,0,0,0,0,0,0,0,0,2.5672,2.5674,0,2.5792,2.5794,2.5795,2.5786,2.5784,2.5783,2.5781,2.5901,2.5906,2.5911,0,0,0,0,0,0,0,0,0,0,0,0,0,2.5431,2.5436,2.5672,2.5674,2.5675,2.5792,2.5794,2.5795,2.5787,2.5784,2.5782,2.578,2.59,2.5905,2.5911,0,0,0,0,0,0,0,0,0,0,0,0,0,2.5542,2.5437,2.5672,2.5685,2.5687,2.5792,2.5794,2.5796,2.5787,2.5784,2.5782,2.5779,2.5898,2.5905,2.5912,2.6011,0,0,2.5934,2.5938,0,0,0,0,0,0,0,0,2.5536,2.5551,2.5681,2.5684,2.5687,2.5772,2.5753,2.5868,2.5788,2.5749,2.5781,2.5778,2.586,2.587,2.5899,2.6016,2.6022,2.5935,2.594,2.5943,2.5945,0,0,0,0,0,0,0,2.5528,2.5546,2.572,2.5683,2.5687,2.5683,2.5696,2.5775,2.5818,2.5752,2.5752,2.5766,2.5861,2.5892,2.5901,2.6023,2.5935,2.5941,2.5946,2.5949,2.6225,2.6228,0,0,0,0,0,0,2.5518,2.5539,2.5716,2.5723,2.5603,2.569,2.5704,2.5747,2.5817,2.5825,2.5769,2.5766,2.5881,2.5893,2.5906,2.6024,2.5943,2.5949,2.5954,2.6222,2.6226,2.6229,0,0,0,0,0,0,2.5513,2.5534,2.5711,2.5631,2.5654,2.5697,2.5745,2.5751,2.5782,2.583,2.5837,2.5792,2.5879,2.5895,2.5984,2.6028,2.5953,2.5959,2.6219,2.6224,2.6228,2.6263,0,0,0,0,0,0,2.5506,2.5532,2.5571,2.5632,2.5658,2.5789,2.5748,2.5755,2.5794,2.5792,2.5854,2.5861,2.5878,2.5974,2.5992,2.6037,2.5965,2.6215,2.6221,2.6226,2.6258,2.6268,2.6277,0,0,0,0,0,2.5497,2.5576,2.5573,2.5594,2.5708,2.5792,2.5806,2.5825,2.5798,2.5837,2.5867,2.5859,2.6021,2.5983,2.6003,2.6051,2.6212,2.6219,2.6226,2.6254,2.6266,2.6276,0,0,0,0,0,0,2.5518,2.5584,2.5582,2.5683,2.5732,2.579,2.5839,2.5837,2.5894,2.5889,2.5909,2.5923,2.6012,2.6041,2.5997,2.6149,2.6113,2.6124,2.6127,2.6139,2.6148,2.6139,2.5971,0,0,0,0,0,2.5535,2.5598,2.5652,2.5736,2.5761,2.5796,2.5833,2.5843,2.5894,2.5915,2.5952,2.6001,2.6062,2.6102,2.6162,2.6262,2.6274,2.6305,2.6314,2.6322,2.6331,2.6384,2.6398,2.6251,2.6251,2.6251,0,0,2.5569,2.5613,2.5652,2.5741,2.578,2.5844,2.5813,2.5883,2.593,2.5925,2.6011,2.604,2.6096,2.619,2.6234,2.6217,2.6374,2.633,2.6336,2.6341,2.6392,2.6406,2.6418,2.6256,2.6255,2.6254,0,0,2.5664,2.5705,2.5778,2.5818,2.5878,2.59,2.5918,2.5976,2.5995,2.6082,2.6079,2.6135,2.6241,2.6281,2.6314,2.6423,2.6417,2.6442,2.649,2.6541,2.6553,2.6563,2.66,2.6614,2.6451,2.6451,2.6451,0,2.5699,2.5797,2.5816,2.5886,2.5924,2.5923,2.5997,2.6034,2.611,2.6135,2.6116,2.6248,2.6285,2.6388,2.6414,2.6443,2.6462,2.6434,2.655,2.656,2.657,2.6606,2.662,2.6453,2.6453,2.6453,2.6452,0,2.5836,2.5904,2.5956,2.6029,2.6073,2.6145,2.6173,2.6216,2.6221,2.6246,2.6333,2.6378,2.6445,2.6471,2.6477,2.6574,2.6561,2.6546,2.6509,2.6586,2.662,2.6634,2.6457,2.6456,2.6455,2.6455,0,0,2.5948,2.6031,2.6049,2.6082,2.6147,2.6199,2.6269,2.6336,2.6371,2.6423,2.6481,2.657,2.6556,2.6594,2.6605,2.665,2.6731,2.6629,2.663,2.6645,2.6838,2.6849,2.6864,2.6728,2.673,2.6732,2.6833,0,2.6049,2.6175,2.6193,2.6304,2.6365,2.6364,2.6425,2.647,2.6495,2.6549,2.6575,2.6638,2.6615,2.6638,2.6683,2.6712,2.677,2.6705,2.678,2.6783,2.6765,2.6882,2.6894,2.6987,2.6846,2.6849,2.685,0,2.6183,2.6239,2.6356,2.6411,2.6437,2.6492,2.6553,2.6606,2.6657,2.6671,2.6714,2.6718,2.6789,2.6751,2.6848,2.6803,2.6835,2.6854,2.6858,2.6865,2.682,2.6891,2.7017,2.703,2.6871,2.687,2.6868,0,2.6251,2.6355,2.6438,2.6466,2.6533,2.6571,2.6601,2.6649,2.6687,2.6741,2.6766,2.6827,2.686,2.6906,2.6926,2.6896,2.7021,2.6985,2.7034,2.7033,2.7059,2.7057,2.7191,2.7082,2.7082,2.7082,2.7081,0,2.6361,2.6432,2.6469,2.652,2.6599,2.6619,2.6696,2.6724,2.6767,2.6821,2.6824,2.6875,2.69,2.6954,2.697,2.7047,2.7063,2.7075,2.7078,2.7074,2.7072,2.7094,2.7088,2.7085,2.7085,2.7084,2.7083,0,2.645,2.6478,2.6568,2.6624,2.6639,2.6695,2.6742,2.679,2.6813,2.6883,2.69,2.6937,2.7001,2.7026,2.7104,2.7115,2.7203,2.7202,2.7186,2.7187,2.7233,2.7228,2.7385,2.7406,2.7284,2.7286,2.7287,0,2.6518,2.6572,2.6634,2.6671,2.6702,2.6762,2.6801,2.6822,2.6863,2.6924,2.6964,2.7029,2.7081,2.7183,2.7216,2.7275,2.7274,2.7325,2.7283,2.7277,2.7273,2.7269,2.7274,2.7333,2.7334,2.7335,2.7336,0,2.6634,2.6645,2.6702,2.6763,2.681,2.6859,2.6907,2.6937,2.6965,2.701,2.7076,2.7117,2.7196,2.7259,2.732,2.7349,2.7346,2.7349,2.7363,2.7359,2.7347,2.7352,2.7206,2.7345,2.7344,2.7343,2.7343,2.7342,2.6714,2.6761,2.6812,2.6874,2.6912,2.6957,2.7004,2.7034,2.7089,2.7156,2.7165,2.7235,2.7283,2.7365,2.7396,2.745,2.7436,2.7457,2.7462,2.7467,2.7469,2.7339,2.7461,2.7461,2.7461,2.7461,2.746,0,2.6829,2.6861,2.6919,2.6985,2.7034,2.7029,2.7081,2.7121,2.7183,2.7229,2.728,2.7355,2.7415,2.7452,2.7513,2.7549,2.7549,2.7564,2.7561,2.7567,2.7479,2.746,2.7563,2.7563,2.7563,2.7563,2.7562,2.7562,2.6894,2.6974,2.6991,2.7089,2.712,2.719,2.722,2.726,2.7296,2.7379,2.743,2.7454,2.7495,2.7559,2.7614,2.7623,2.7644,2.766,2.7668,2.7584,2.7574,2.7563,2.7546,2.7665,2.7665,2.7751,2.7752,2.7753]}]]